Location: Breitenfeld
(46.8500°N, 15.6333°E)
Time: 10:35:00
(UTC+00:00)

Transit 4B - Pass Details

Date: 30 May 2022
Orbit: 948 x 1097 km, 32.4° (Epoch: 01 July)

Event Time Altitude Azimuth Distance (km) Brightness Sun altitude
Exits shadow 00:59:16 19° 181° (S) 2,173 9.8 -15.9°
Maximum altitude 01:00:22 20° 168° (SSE) 2,124 9.9 -15.8°
Drops below altitude 10° 01:04:51 10° 125° (SE) 2,711 10.8 -15.4°
Sets 01:08:12 0° 108° (ESE) 3,638 11.7 -15.1°
